Regional Weather Roundup
Issued by NWS Green Bay, WI

Home | Current Version | Previous Version | Graphics & Text | Print | Product List | Glossary Off
Versions: 1 2 3 4 5 6 7 8 9 10 11 12 13 14 15 16 17 18 19 20 21 22 23 24 25 26 27 28 29 30 31 32 33 34 35 36 37 38 39 40 41 42 43 44 45 46 47 48 49 50

000
ASUS43 KGRB 200711
RWRGRB

NORTH-CENTRAL AND NORTHEAST WISCONSIN REGIONAL WEATHER ROUNDUP
NATIONAL WEATHER SERVICE GREEN BAY WI
200 AM CDT SUN AUG 20 2017

WIZ005-009-010>012-018-019-200800-
NORTH CENTRAL WISCONSIN

CITY           SKY/WX    TMP DP  RH WIND       PRES   REMARKS
IRONWOOD       CLOUDY    65  59  81 SW6       29.93S
MANITOWISH WTR FOG       54  54 100 CALM      29.95F VSB 1/2
ARBOR VITAE    CLEAR     59  57  93 CALM      29.96S
EAGLE RIVER    CLEAR     55  55 100 CALM      29.96F FOG
LAND O LAKES   CLEAR     53  53 100 CALM      29.99R FOG
RHINELANDER    FOG       55  55 100 CALM      29.98S VSB 1/4
PHILLIPS       CLEAR     58  58 100 CALM      29.96S
ANTIGO         CLEAR     54  54 100 CALM      29.99S
TOMAHAWK         N/A     53  52  97 CALM      29.97F
MERRILL        CLEAR     54  54 100 CALM      29.98S
$$

WIZ013-073-200800-
NORTHEAST WISCONSIN

CITY           SKY/WX    TMP DP  RH WIND       PRES   REMARKS
IRON MOUNTAIN  CLEAR     60  55  83 CALM      29.94S
MARINETTE      CLEAR     63  60  90 W3        29.96R
OCONTO         CLEAR     58  56  96 CALM      29.96R
$$

WIZ017-030-035>037-045-200800-
CENTRAL WISCONSIN

CITY           SKY/WX    TMP DP  RH WIND       PRES   REMARKS
MEDFORD        CLEAR     57  56  95 S3        29.97S
WAUSAU         CLEAR     59  58  96 E5        29.96S
MOSINEE        CLEAR     55  55 100 CALM      29.98F
MARSHFIELD     CLEAR     60  57  89 CALM      29.96F
WISC RAPIDS    CLEAR     58  57  97 CALM      29.98F
STEVENS POINT  CLEAR     54  54 100 CALM      29.98F
WAUPACA        CLEAR     60  59  97 CALM      29.98S
SHAWANO        FOG       61  59  93 CALM      29.97R VSB 3/4
CLINTONVILLE   CLEAR     59  55  88 CALM      29.98R
WAUTOMA        CLEAR     56  56 100 CALM      29.98S
$$

WIZ038-039-048-051-200800-
FOX VALLEY

CITY           SKY/WX    TMP DP  RH WIND       PRES   REMARKS
NWS GREEN BAY  CLEAR     59  59 100 CALM      29.97R
APPLETON       CLEAR     64  55  72 SW5       29.97S
OSHKOSH        CLEAR     65  59  81 S5        29.97S
FOND DU LAC    CLEAR     62  58  86 S3        29.98S
$$

WIZ022-050-052-200800-
EAST CENTRAL WISCONSIN

CITY           SKY/WX    TMP DP  RH WIND       PRES   REMARKS
EPHRAIM        FAIR      67  62  84 W6        29.95S
WASHINGTON ISL CLOUDY    65  62  89 SW5       29.94R
STURGEON BAY   CLEAR     64  60  87 SW5       29.97R
MANITOWOC      CLEAR     66  60  81 W5        29.98S
SHEBOYGAN      CLEAR     61  61 100 SW3       29.99R
$$

LMZ563-521-522-541>543-200800-
LAKESHORE

STATION/POSITION TIME  TEMP    WIND        PRES    VSBY  WAVE
                       AIR SEA DIR/SP/G                  HT/PER
                 (UTC) (F)     (DEG/KT/KT) (MB)    (MI)  (FT/S)
SHEBOYGAN LKSHOR 0700   69     250/  9/ 10 1014.8R
KEWAUNEE LKSHORE 0642          310/  3/  4 1013.9R
NORTHPORT PIER   0640   69     280/  4/  9 1013.5R
N MID LAKE BUOY  0650   69 67  240/ 10/ 12 1013.9R         2/ 4
S GREEN BAY BUOY 0630   71 71  230/  8/ 10 1014.2R
SISTER BAY LKSHO 0618   71     250/  8/  9   N/A
MENOMINEE LKSHOR 0642          240/  8/  9 1013.8R
$$



USA.gov is the U.S. government's official web portal to all federal, state and local government web resources and services.